sat.trackr.live / text

‹ back to catalog

ONEWEB-0272

NORAD 48990 · 2021-060Z

PAYLOAD ACTIVE UNKNOWN

§ Identity

Operator
Country
UK
Launch date
2021-07-01
Launch site
VOSTO
Launch vehicle
Mass (kg)
RCS (m²)

Purposes: comms

External: N2YO · Heavens-Above · Gunter

§ Orbital elements

Epoch: 2026-09-20T04:32:27.413952Z

Period
109.37 min
Inclination
87.9153°
Eccentricity
0.0002335
Mean motion
13.16593637 rev/d
Perigee alt
1,196.0 km
Apogee alt
1,199.5 km
Semi-major
7,575.9 km
B*
5.2682e-5
RAAN
209.9188°
Arg perigee
77.9282°
Mean anomaly
282.2111°
Rev number
25,211

§ Raw data

ONEWEB-02721 48990U 21060Z   26263.18920618  .00000033  00000+0  52682-4 0  99952 48990  87.9153 209.9188 0002335  77.9282 282.2111 13.16593637252112

JSON: /api/v1/satellites/48990 · /tle

For live sub-satellite position, see the globe view (requires WebGL).

§ Visibility from observer

Set your observer location to see the next 7 days of passes ≥ 10°. The values pass through the URL so the page stays shareable.

No JS? Fill the form by hand. The geolocation button needs JavaScript.